TimeMST,TemperatureF,Dew PointF,Humidity,Sea Level PressureIn,VisibilityMPH,Wind Direction,Wind SpeedMPH,Gust SpeedMPH,PrecipitationIn,Events,Conditions,WindDirDegrees,DateUTC
12:15 AM,28.4,14.0,55,30.20,-9999.0,South,4.6,-,N/A,,Overcast,190,2012-11-13 07:15:00
12:35 AM,28.4,14.0,55,30.20,-9999.0,South,5.8,-,N/A,,Overcast,170,2012-11-13 07:35:00
12:55 AM,28.4,14.0,55,30.21,-9999.0,South,5.8,-,N/A,,Overcast,180,2012-11-13 07:55:00
1:15 AM,32.0,12.2,44,30.20,-9999.0,Calm,Calm,-,N/A,,Overcast,0,2012-11-13 08:15:00
1:35 AM,24.8,15.8,69,30.20,-9999.0,SE,3.5,-,N/A,,Overcast,140,2012-11-13 08:35:00
1:55 AM,24.8,15.8,69,30.20,-9999.0,Calm,Calm,-,N/A,,Overcast,0,2012-11-13 08:55:00
2:15 AM,28.4,14.0,55,30.20,-9999.0,WNW,4.6,-,N/A,,Overcast,290,2012-11-13 09:15:00
2:35 AM,28.4,15.8,59,30.21,-9999.0,West,4.6,-,N/A,,Overcast,280,2012-11-13 09:35:00
2:55 AM,28.4,15.8,59,30.21,-9999.0,NW,4.6,-,N/A,,Overcast,310,2012-11-13 09:55:00
3:15 AM,28.4,15.8,59,30.21,-9999.0,NW,12.7,-,N/A,,Mostly Cloudy,310,2012-11-13 10:15:00
3:35 AM,26.6,15.8,64,30.22,-9999.0,WNW,13.8,-,N/A,,Mostly Cloudy,300,2012-11-13 10:35:00
3:55 AM,26.6,15.8,64,30.21,-9999.0,NW,12.7,-,N/A,,Mostly Cloudy,310,2012-11-13 10:55:00
4:15 AM,26.6,15.8,64,30.21,-9999.0,NW,13.8,-,N/A,,Scattered Clouds,320,2012-11-13 11:15:00
4:35 AM,26.6,14.0,59,30.22,-9999.0,NNW,8.1,-,N/A,,Clear,330,2012-11-13 11:35:00
4:55 AM,26.6,14.0,59,30.23,-9999.0,NNW,8.1,-,N/A,,Clear,330,2012-11-13 11:55:00
5:35 AM,26.6,14.0,59,30.25,-9999.0,NNW,6.9,-,N/A,,Clear,340,2012-11-13 12:35:00
5:55 AM,26.6,14.0,59,30.26,-9999.0,NNW,8.1,-,N/A,,Clear,340,2012-11-13 12:55:00
6:15 AM,26.6,14.0,59,30.26,-9999.0,North,6.9,-,N/A,,Clear,360,2012-11-13 13:15:00
6:35 AM,28.4,17.6,64,30.26,-9999.0,NNE,9.2,-,N/A,,Clear,30,2012-11-13 13:35:00
6:55 AM,28.4,17.6,64,30.26,-9999.0,East,4.6,-,N/A,,Scattered Clouds,100,2012-11-13 13:55:00
7:15 AM,24.8,17.6,74,30.27,-9999.0,SSE,5.8,-,N/A,,Mostly Cloudy,150,2012-11-13 14:15:00
7:35 AM,30.2,17.6,60,30.26,-9999.0,SE,6.9,-,N/A,,Overcast,130,2012-11-13 14:35:00
7:55 AM,30.2,17.6,60,30.27,-9999.0,ESE,8.1,-,N/A,,Mostly Cloudy,120,2012-11-13 14:55:00
8:15 AM,28.4,17.6,64,30.28,-9999.0,SE,6.9,-,N/A,,Scattered Clouds,130,2012-11-13 15:15:00
8:35 AM,28.4,17.6,64,30.28,-9999.0,ESE,8.1,-,N/A,,Clear,120,2012-11-13 15:35:00
8:55 AM,26.6,15.8,64,30.28,-9999.0,SSE,6.9,-,N/A,,Clear,150,2012-11-13 15:55:00
9:15 AM,28.4,17.6,64,30.28,-9999.0,SSE,11.5,-,N/A,,Clear,150,2012-11-13 16:15:00
9:35 AM,26.6,17.6,69,30.27,-9999.0,SE,11.5,-,N/A,,Clear,140,2012-11-13 16:35:00
9:55 AM,26.6,17.6,69,30.26,-9999.0,SE,16.1,-,N/A,,Clear,140,2012-11-13 16:55:00
10:15 AM,26.6,17.6,69,30.26,-9999.0,SE,17.3,-,N/A,,Clear,140,2012-11-13 17:15:00
10:35 AM,26.6,17.6,69,30.26,-9999.0,SE,18.4,-,N/A,,Clear,140,2012-11-13 17:35:00
10:55 AM,28.4,17.6,64,30.27,-9999.0,SE,18.4,-,N/A,,Clear,140,2012-11-13 17:55:00
11:15 AM,28.4,17.6,64,30.27,-9999.0,SE,12.7,-,N/A,,Clear,140,2012-11-13 18:15:00
11:35 AM,28.4,17.6,64,30.27,-9999.0,SE,10.4,-,N/A,,Clear,140,2012-11-13 18:35:00
12:15 PM,28.4,17.6,64,30.26,-9999.0,SE,9.2,-,N/A,,Clear,130,2012-11-13 19:15:00
12:35 PM,30.2,17.6,60,30.26,-9999.0,SE,8.1,-,N/A,,Clear,140,2012-11-13 19:35:00
12:55 PM,30.2,17.6,60,30.25,-9999.0,SE,9.2,-,N/A,,Clear,130,2012-11-13 19:55:00
1:15 PM,30.2,17.6,60,30.26,-9999.0,SSE,8.1,-,N/A,,Clear,160,2012-11-13 20:15:00
1:35 PM,30.2,19.4,64,30.25,-9999.0,South,8.1,-,N/A,,Clear,190,2012-11-13 20:35:00
1:55 PM,30.2,19.4,64,30.25,-9999.0,South,4.6,-,N/A,,Clear,170,2012-11-13 20:55:00
2:15 PM,30.2,19.4,64,30.25,10.0,SSW,6.9,-,N/A,,Clear,200,2012-11-13 21:15:00
2:35 PM,30.2,21.2,69,30.24,10.0,SSE,8.1,-,N/A,,Clear,160,2012-11-13 21:35:00
2:55 PM,28.4,21.2,74,30.25,10.0,SE,5.8,-,N/A,,Clear,130,2012-11-13 21:55:00
3:15 PM,30.2,21.2,69,30.25,10.0,SSE,6.9,-,N/A,,Clear,160,2012-11-13 22:15:00
3:35 PM,28.4,21.2,74,30.25,10.0,Calm,Calm,-,N/A,,Clear,0,2012-11-13 22:35:00
3:55 PM,28.4,23.0,80,30.25,10.0,SE,4.6,-,N/A,,Clear,130,2012-11-13 22:55:00
4:15 PM,28.4,21.2,74,30.26,10.0,SE,5.8,-,N/A,,Clear,130,2012-11-13 23:15:00
4:35 PM,28.4,19.4,69,30.25,10.0,SE,3.5,-,N/A,,Clear,140,2012-11-13 23:35:00
4:55 PM,30.2,19.4,64,30.25,10.0,SE,6.9,-,N/A,,Clear,140,2012-11-13 23:55:00
5:15 PM,30.2,19.4,64,30.25,10.0,SSE,8.1,-,N/A,,Clear,160,2012-11-14 00:15:00
5:35 PM,30.2,19.4,64,30.25,10.0,SSE,8.1,-,N/A,,Clear,160,2012-11-14 00:35:00
5:55 PM,30.2,21.2,69,30.25,10.0,SSE,10.4,-,N/A,,Clear,160,2012-11-14 00:55:00
6:15 PM,28.4,21.2,74,30.25,10.0,SSE,11.5,-,N/A,,Clear,160,2012-11-14 01:15:00
6:35 PM,28.4,21.2,74,30.26,10.0,SE,4.6,-,N/A,,Clear,140,2012-11-14 01:35:00
6:55 PM,28.4,19.4,69,30.25,10.0,SSE,9.2,-,N/A,,Clear,150,2012-11-14 01:55:00
7:15 PM,28.4,21.2,74,30.24,10.0,SSE,15.0,19.6,N/A,,Clear,150,2012-11-14 02:15:00
7:35 PM,28.4,21.2,74,30.24,10.0,SSE,13.8,20.7,N/A,,Clear,150,2012-11-14 02:35:00
7:55 PM,28.4,21.2,74,30.24,10.0,SSE,15.0,19.6,N/A,,Clear,160,2012-11-14 02:55:00
8:15 PM,28.4,21.2,74,30.24,10.0,SSE,15.0,21.9,N/A,,Clear,160,2012-11-14 03:15:00
8:35 PM,28.4,21.2,74,30.24,10.0,SSE,17.3,23.0,N/A,,Clear,160,2012-11-14 03:35:00
8:55 PM,28.4,19.4,69,30.24,10.0,South,16.1,-,N/A,,Clear,170,2012-11-14 03:55:00
9:15 PM,30.2,21.2,69,30.23,10.0,SSE,15.0,20.7,N/A,,Clear,160,2012-11-14 04:15:00
9:35 PM,28.4,21.2,74,30.23,10.0,South,17.3,-,N/A,,Clear,170,2012-11-14 04:35:00
9:55 PM,30.2,21.2,69,30.24,10.0,South,18.4,-,N/A,,Clear,180,2012-11-14 04:55:00
10:15 PM,30.2,21.2,69,30.23,10.0,SSE,17.3,-,N/A,,Clear,160,2012-11-14 05:15:00
10:35 PM,32.0,21.2,64,30.23,10.0,SSE,15.0,-,N/A,,Clear,150,2012-11-14 05:35:00
10:55 PM,32.0,21.2,64,30.23,10.0,South,13.8,-,N/A,,Clear,170,2012-11-14 05:55:00
11:15 PM,30.2,21.2,69,30.23,10.0,SSE,12.7,-,N/A,,Clear,160,2012-11-14 06:15:00
11:35 PM,28.4,21.2,74,30.22,10.0,South,16.1,19.6,N/A,,Clear,170,2012-11-14 06:35:00
11:55 PM,30.2,21.2,69,30.22,10.0,SSE,16.1,23.0,N/A,,Clear,160,2012-11-14 06:55:00